Regional Weather Roundup
Issued by NWS

Home | Current Version | Previous Version | Text Only | Print | Product List | Glossary On
Versions: 1 2 3 4 5 6 7 8 9 10 11 12 13 14 15 16 17 18 19 20 21 22 23 24 25 26 27 28 29 30 31 32 33 34 35 36 37 38 39 40 41 42 43 44 45 46 47 48 49 50
000
ASUS43 KLMK 211802
RWRKY
KENTUCKY REGIONAL WEATHER ROUNDUP
NATIONAL WEATHER SERVICE LOUISVILLE KY
200 PM EDT THU SEP 21 2017

NOTE "FAIR" INDICATES FEW OR NO CLOUDS BELOW 12,000 FEET
WITH NO SIGNIFICANT WEATHER AND/OR OBSTRUCTIONS TO VISIBILITY.

KYZ001>023-026-027-061>063-070>075-211900-
WESTERN AND SOUTH CENTRAL KENTUCKY

CITY           SKY/WX    TMP DP  RH WIND       PRES   REMARKS
PADUCAH        MOSUNNY   89  69  51 VRB3      30.05F HX  93
HENDERSON      PTSUNNY   89  72  56 CALM      30.06F HX  96
OWENSBORO      MOSUNNY   92  72  51 VRB6      30.07F HX  99
HOPKINSVILLE   PTSUNNY   87  70  57 NW3       30.07F HX  91
BOWLING GREEN  MOSUNNY   87  72  60 NE5       30.08F HX  93
GLASGOW        NOT AVBL
$$

KYZ024-025-028>034-038-045-046-053-211900-
NORTH CENTRAL KENTUCKY

CITY           SKY/WX    TMP DP  RH WIND       PRES   REMARKS
LOUISVILLE/SDF PTSUNNY   90  69  50 CALM      30.07F HX  94
LOUISVILLE/LOU PTSUNNY   87  72  60 CALM      30.09F HX  93
FORT KNOX      MOSUNNY   84  74  72 NE7       30.08F HX  91
$$

KYZ035>037-039>044-047>052-055>060-089>105-211900-
NORTHEAST KENTUCKY

CITY           SKY/WX    TMP DP  RH WIND       PRES   REMARKS
LEXINGTON      PTSUNNY   85  70  60 NW5       30.11F
COVINGTON      MOSUNNY   87  73  62 VRB3      30.09F HX  94
FRANKFORT      MOSUNNY   87  67  51 CALM      30.09F HX  90
$$

KYZ054-064>069-076>088-106>120-211900-
SOUTHEAST KENTUCKY

CITY           SKY/WX    TMP DP  RH WIND       PRES   REMARKS
JACKSON        SUNNY     82  67  60 CALM      30.13F
LONDON         MOSUNNY   83  65  54 NE6       30.12F
SOMERSET       NOT AVBL
MIDDLESBORO    MOSUNNY   85  65  50 NE6       30.11F
MONTICELLO     CLEAR     85  68  56 N14G22    30.12F
$$





USA.gov is the U.S. government's official web portal to all federal, state and local government web resources and services.